This demonstration page uses our WeatherBlox Daily Observations layout. Learn more.

Left ArrowRight Arrow

Hourly Observations for August 31, 2020

Temp ( °F °C ) Dew Point ( °F °C ) Humidity (%) Winds ( mph kmh ) Pressure ( in mb ) Visibility ( mi km ) Precip ( " mm )
12:52 am 00:52 Clear 71 21.7 70 21.1 96 96 SSE 10 17 29.74 1007 10 16 0.00 0.00
1:52 am 01:52 Cloudy 72 22.2 70 21.1 94 94 SSE 8 13 29.74 1007 10 16 0.00 0.00
2:52 am 02:52 Clear 71 21.7 70 21.1 96 96 SSE 8 13 29.72 1006 10 16 0.00 0.00
3:52 am 03:52 Partly Cloudy 70 21.1 69 20.6 97 97 S 6 9 29.72 1007 10 16 0.00 0.00
4:52 am 04:52 Clear 70 21.1 69 20.6 97 97 SSE 7 11 29.72 1007 10 16 0.00 0.00
5:52 am 05:52 Clear 70 21.1 69 20.6 97 97 SSE 8 13 29.73 1007 10 16 0.00 0.00
6:52 am 06:52 Sunny 70 21.1 69 20.6 97 97 SSE 9 15 29.75 1007 10 16 0.00 0.00
7:52 am 07:52 Partly Cloudy 72 22.2 70 21.1 94 94 SSE 13 20 29.74 1007 10 16 0.00 0.00
8:52 am 08:52 Sunny 76 24.4 72 22.2 88 88 S 10 17 29.73 1007 10 16 0.00 0.00
9:52 am 09:52 Mostly Cloudy with Nearby Thunderstorms 76 24.4 71 21.7 85 85 SSW 10 17 29.75 1008 10 16 0.00 0.00
10:38 am 10:38 Partly Cloudy 81 27.2 73 22.8 77 77 SSW 13 20 29.73 1007 10 16 0.00 0.00
10:52 am 10:52 Mostly Sunny 80 26.7 72 22.2 76 76 SSW 14 22 29.77 1008 10 16 0.00 0.00
11:52 am 11:52 Sunny 85 29.4 70 21.1 61 61 S 13 20 29.77 1008 10 16 0.00 0.00
12:52 pm 12:52 Mostly Cloudy 84 28.9 66 18.9 55 55 NNW 22 35 29.84 1011 10 16 0.00 0.00
1:06 pm 13:06 Cloudy 75 23.9 67 19.4 76 76 NNE 22 35 29.85 1011 10 16 0.00 0.00
1:30 pm 13:30 Cloudy with Nearby Thunderstorms 73 22.8 69 20.6 87 87 E 16 26 29.83 1010 8 13 0.05 1.27
1:52 pm 13:52 Partly Cloudy with Nearby Thunderstorms 74 23.3 70 21.1 88 88 ESE 18 30 29.82 1010 10 16 0.05 1.27
2:00 pm 14:00 Mostly Sunny 74 23.3 69 20.6 85 85 SE 15 24 29.81 1009 10 16 0.00 0.00
2:52 pm 14:52 Mostly Cloudy 80 26.7 69 20.6 69 69 ESE 9 15 29.83 1010 10 16 0.00 0.00
3:52 pm 15:52 Sunny 83 28.3 67 19.4 59 59 SE 14 22 29.79 1009 10 16 0.00 0.00
4:52 pm 16:52 Sunny 82 27.8 66 18.9 58 58 SSE 13 20 29.79 1009 10 16 0.00 0.00
5:52 pm 17:52 Sunny 81 27.2 66 18.9 61 61 SSE 15 24 29.77 1008 10 16 0.00 0.00
6:52 pm 18:52 Sunny 77 25 66 18.9 69 69 SSE 10 17 29.77 1008 10 16 0.00 0.00
7:52 pm 19:52 Clear 76 24.4 66 18.9 72 72 S 13 20 29.79 1009 10 16 0.00 0.00
8:52 pm 20:52 Clear 75 23.9 65 18.3 71 71 S 14 22 29.80 1009 10 16 0.00 0.00
9:52 pm 21:52 Clear 74 23.3 65 18.3 74 74 SSE 12 19 29.83 1010 10 16 0.00 0.00
10:52 pm 22:52 Clear 73 22.8 65 18.3 76 76 SSE 12 19 29.82 1010 10 16 0.00 0.00
11:52 pm 23:52 Clear 73 22.8 66 18.9 79 79 SSE 12 19 29.83 1010 10 16 0.00 0.00

Powered by AerisWeather